Home   Weather   Virginia Beach   Past weeks
Flag for USA

Past Weather in Virginia Beach, Virginia, USA — Yesterday and Last 2 Weeks

Now
64 °F

Mostly cloudy.


Feels Like: 64 °F
Forecast: 71 / 61 °F
Wind: 7 mph from East

Location: Virginia Beach - Oceana

Current Time: Oct 20, 2019 at 2:30:46 am

Latest Report: Oct 20, 2019 at 1:56 am


Visibility: 10 mi

Pressure: 29.96 "Hg

Humidity: 78%

Dew Point: 57 °F

Location of Virginia BeachLocation

Past Weather in Virginia Beach — Graph

°F

Virginia Beach Temperature Yesterday

Maximum temperature yesterday: 67 °F (at 12:56 pm)
Minimum temperature yesterday: 43 °F (at 3:56 am)
Average temperature yesterday: 56 °F

High & Low Weather Summary for the Past Weeks

 TemperatureHumidityPressure
High80 °F (Oct 7, 11:56 am)100% (Oct 14, 9:08 pm)30.33 "Hg (Oct 14, 9:08 pm)
Low43 °F (Oct 19, 3:56 am)38% (Oct 17, 4:56 pm)29.45 "Hg (Oct 16, 3:31 pm)
Average64 °F77%30.03 "Hg
* Reported Oct 5 12:56 am — Oct 20 12:56 am, Virginia Beach. Weather by CustomWeather, © 2019

Note: Actual official high and low records may vary slightly from our data, if they occured in-between our weather recording intervals... More about our weather records

Advertising

Virginia Beach Weather History for the Previous 24 Hours

Scroll right to see more
 ConditionsComfort  
Time TempWeatherWind HumidityBarometerVisibility
12:56 am
Sun, Oct 20
62 °FMostly cloudy.6 mph78%29.98 "Hg10 mi
11:56 pm
Sat, Oct 19
59 °FMostly cloudy.3 mph81%30.01 "Hg10 mi
10:56 pm59 °FOvercast.No wind78%30.02 "Hg10 mi
9:56 pm60 °FOvercast.5 mph75%30.03 "Hg10 mi
8:56 pm60 °FClear.6 mph69%30.03 "Hg10 mi
7:56 pm58 °FOvercast.5 mph72%30.04 "Hg10 mi
6:56 pm59 °FMostly cloudy.5 mph67%30.04 "Hg10 mi
5:56 pm61 °FMore clouds than sun.6 mph58%30.05 "Hg10 mi
4:56 pm63 °FPartly sunny.7 mph52%30.05 "Hg10 mi
3:56 pm65 °FBroken clouds.9 mph45%30.05 "Hg10 mi
2:56 pm67 °FPartly sunny.9 mph44%30.07 "Hg10 mi
1:56 pm66 °FPartly sunny.8 mph43%30.09 "Hg10 mi
12:56 pm67 °FPartly sunny.5 mph44%30.10 "Hg10 mi
11:56 am65 °FPartly sunny.3 mph44%30.12 "Hg10 mi
10:56 am62 °FPartly sunny.No wind50%30.13 "Hg10 mi
9:56 am61 °FScattered clouds.No wind60%30.11 "Hg10 mi
8:56 am51 °FScattered clouds.3 mph86%30.12 "Hg10 mi
7:56 am43 °FPartly sunny.5 mph97%30.10 "Hg10 mi
6:56 am43 °FPassing clouds.No wind93%30.08 "Hg10 mi
5:56 am45 °FClear.3 mph90%30.09 "Hg10 mi
4:56 am44 °FPassing clouds.5 mph89%30.07 "Hg10 mi
3:56 am43 °FClear.5 mph93%30.06 "Hg10 mi
2:56 am45 °FClear.3 mph90%30.06 "Hg10 mi
Weather by CustomWeather, © 2019

See weather overview